Time,TemperatureF,DewpointF,PressureIn,WindDirection,WindDirectionDegrees,WindSpeedMPH,WindSpeedGustMPH,Humidity,HourlyPrecipIn,Conditions,Clouds,dailyrainin,SoftwareType,DateUTC
2013-05-13 00:05:00,158.0,0.0,30.09,North,9,12.0,14.0,0,0.00,,---,0.00,VWS V14.00,2013-05-13 05:05:00,
2013-05-13 00:15:00,158.0,0.0,30.08,North,9,13.0,16.0,0,0.00,,---,0.00,VWS V14.00,2013-05-13 05:15:00,
2013-05-13 00:25:00,158.0,0.0,30.09,North,5,13.0,14.0,0,0.00,,---,0.00,VWS V14.00,2013-05-13 05:25:00,
2013-05-13 00:35:00,158.0,0.0,30.08,North,360,13.0,16.0,0,0.00,,---,0.00,VWS V14.00,2013-05-13 05:35:00,
2013-05-13 00:45:00,158.0,0.0,30.08,North,5,16.0,16.0,0,0.00,,---,0.00,VWS V14.00,2013-05-13 05:45:00,
2013-05-13 00:55:00,158.0,0.0,30.08,North,5,15.0,18.0,0,0.00,,---,0.00,VWS V14.00,2013-05-13 05:55:00,
2013-05-13 01:05:00,158.0,0.0,30.08,North,5,14.0,17.0,0,0.00,,---,0.00,VWS V14.00,2013-05-13 06:05:00,
2013-05-13 01:15:00,158.0,0.0,30.08,North,355,13.0,16.0,0,0.00,,---,0.00,VWS V14.00,2013-05-13 06:15:00,
2013-05-13 01:25:00,158.0,0.0,30.08,North,360,13.0,17.0,0,0.00,,---,0.00,VWS V14.00,2013-05-13 06:25:00,
2013-05-13 01:35:00,158.0,0.0,30.08,North,350,14.0,16.0,0,0.00,,---,0.00,VWS V14.00,2013-05-13 06:35:00,
2013-05-13 01:45:00,158.0,0.0,30.08,North,360,13.0,17.0,0,0.00,,---,0.00,VWS V14.00,2013-05-13 06:45:00,
2013-05-13 01:55:00,158.0,0.0,30.09,North,355,16.0,17.0,0,0.00,,---,0.00,VWS V14.00,2013-05-13 06:55:00,
2013-05-13 02:05:00,158.0,0.0,30.10,North,5,14.0,16.0,0,0.00,,---,0.00,VWS V14.00,2013-05-13 07:05:00,
2013-05-13 02:15:00,158.0,0.0,30.10,North,5,11.0,15.0,0,0.00,,---,0.00,VWS V14.00,2013-05-13 07:15:00,
2013-05-13 02:25:00,158.0,0.0,30.10,North,360,11.0,14.0,0,0.00,,---,0.00,VWS V14.00,2013-05-13 07:25:00,
2013-05-13 02:35:00,158.0,0.0,30.10,North,9,10.0,14.0,0,0.00,,---,0.00,VWS V14.00,2013-05-13 07:35:00,
2013-05-13 02:45:00,158.0,0.0,30.10,North,11,13.0,14.0,0,0.00,,---,0.00,VWS V14.00,2013-05-13 07:45:00,
2013-05-13 02:55:00,158.0,0.0,30.10,North,5,15.0,16.0,0,0.00,,---,0.00,VWS V14.00,2013-05-13 07:55:00,
2013-05-13 03:05:00,158.0,0.0,30.10,North,9,16.0,20.0,0,0.00,,---,0.00,VWS V14.00,2013-05-13 08:05:00,
2013-05-13 03:25:00,158.0,0.0,30.11,North,5,14.0,18.0,0,0.00,,---,0.00,VWS V14.00,2013-05-13 08:25:00,
2013-05-13 03:35:00,158.0,0.0,30.11,North,360,15.0,18.0,0,0.00,,---,0.00,VWS V14.00,2013-05-13 08:35:00,
2013-05-13 03:45:00,158.0,0.0,30.11,North,5,13.0,17.0,0,0.00,,---,0.00,VWS V14.00,2013-05-13 08:45:00,
2013-05-13 03:55:00,158.0,0.0,30.11,North,5,16.0,17.0,0,0.00,,---,0.00,VWS V14.00,2013-05-13 08:55:00,
2013-05-13 04:05:00,158.0,0.0,30.12,North,360,12.0,19.0,0,0.00,,---,0.00,VWS V14.00,2013-05-13 09:05:00,
2013-05-13 04:15:00,158.0,0.0,30.12,North,360,14.0,17.0,0,0.00,,---,0.00,VWS V14.00,2013-05-13 09:15:00,
2013-05-13 04:25:00,158.0,0.0,30.12,North,360,14.0,17.0,0,0.00,,---,0.00,VWS V14.00,2013-05-13 09:25:00,
2013-05-13 04:35:00,158.0,0.0,30.12,NNE,17,14.0,16.0,0,0.00,,---,0.00,VWS V14.00,2013-05-13 09:35:00,
2013-05-13 04:45:00,158.0,0.0,30.13,North,5,15.0,17.0,0,0.00,,---,0.00,VWS V14.00,2013-05-13 09:45:00,
2013-05-13 04:55:00,158.0,0.0,30.13,NNE,18,14.0,17.0,0,0.00,,---,0.00,VWS V14.00,2013-05-13 09:55:00,
2013-05-13 05:05:00,158.0,0.0,30.13,North,5,15.0,18.0,0,0.00,,---,0.00,VWS V14.00,2013-05-13 10:05:00,
2013-05-13 05:15:00,158.0,0.0,30.14,North,355,17.0,18.0,0,0.00,,---,0.00,VWS V14.00,2013-05-13 10:15:00,
2013-05-13 05:25:00,158.0,0.0,30.14,NNW,342,14.0,18.0,0,0.00,,---,0.00,VWS V14.00,2013-05-13 10:25:00,
2013-05-13 05:35:00,158.0,0.0,30.14,NNW,347,14.0,17.0,0,0.00,,---,0.00,VWS V14.00,2013-05-13 10:35:00,
2013-05-13 05:45:00,158.0,0.0,30.15,NNW,344,14.0,16.0,0,0.00,,---,0.00,VWS V14.00,2013-05-13 10:45:00,
2013-05-13 05:55:00,158.0,0.0,30.16,North,5,13.0,17.0,0,0.00,,---,0.00,VWS V14.00,2013-05-13 10:55:00,
2013-05-13 06:05:00,158.0,0.0,30.16,North,5,14.0,18.0,0,0.00,,---,0.00,VWS V14.00,2013-05-13 11:05:00,
2013-05-13 06:15:00,158.0,0.0,30.17,North,9,15.0,18.0,0,0.00,,---,0.00,VWS V14.00,2013-05-13 11:15:00,
2013-05-13 06:25:00,158.0,0.0,30.17,NNW,337,16.0,18.0,0,0.00,,---,0.00,VWS V14.00,2013-05-13 11:25:00,
2013-05-13 06:35:00,158.0,0.0,30.18,North,355,13.0,17.0,0,0.00,,---,0.00,VWS V14.00,2013-05-13 11:35:00,
2013-05-13 06:45:00,158.0,0.0,30.19,North,360,12.0,18.0,0,0.00,,---,0.00,VWS V14.00,2013-05-13 11:45:00,
2013-05-13 06:55:00,158.0,0.0,30.19,North,360,15.0,18.0,0,0.00,,---,0.00,VWS V14.00,2013-05-13 11:55:00,
2013-05-13 07:05:00,158.0,0.0,30.20,North,355,12.0,16.0,0,0.00,,---,0.00,VWS V14.00,2013-05-13 12:05:00,
2013-05-13 07:15:00,158.0,0.0,30.20,North,360,12.0,16.0,0,0.00,,---,0.00,VWS V14.00,2013-05-13 12:15:00,
2013-05-13 07:25:00,158.0,0.0,30.21,North,360,15.0,19.0,0,0.00,,---,0.00,VWS V14.00,2013-05-13 12:25:00,
2013-05-13 07:35:00,158.0,0.0,30.22,North,350,9.0,17.0,0,0.00,,---,0.00,VWS V14.00,2013-05-13 12:35:00,
2013-05-13 07:45:00,158.0,0.0,30.22,North,360,10.0,15.0,0,0.00,,---,0.00,VWS V14.00,2013-05-13 12:45:00,
2013-05-13 07:55:00,158.0,0.0,30.22,North,360,11.0,14.0,0,0.00,,---,0.00,VWS V14.00,2013-05-13 12:55:00,
2013-05-13 08:05:00,158.0,0.0,30.22,North,360,10.0,13.0,0,0.00,,---,0.00,VWS V14.00,2013-05-13 13:05:00,
2013-05-13 08:15:00,158.0,0.0,30.22,North,5,9.0,13.0,0,0.00,,---,0.00,VWS V14.00,2013-05-13 13:15:00,
2013-05-13 08:25:00,158.0,0.0,30.22,NNE,15,10.0,12.0,0,0.00,,---,0.00,VWS V14.00,2013-05-13 13:25:00,
2013-05-13 08:35:00,158.0,0.0,30.22,NNE,16,11.0,14.0,0,0.00,,---,0.00,VWS V14.00,2013-05-13 13:35:00,
2013-05-13 08:45:00,158.0,0.0,30.23,NNE,22,10.0,16.0,0,0.00,,---,0.00,VWS V14.00,2013-05-13 13:45:00,
2013-05-13 08:55:00,158.0,0.0,30.23,NE,36,10.0,15.0,0,0.00,,---,0.00,VWS V14.00,2013-05-13 13:55:00,
2013-05-13 09:05:00,158.0,0.0,30.23,NE,36,11.0,15.0,0,0.00,,---,0.00,VWS V14.00,2013-05-13 14:05:00,
2013-05-13 09:15:00,158.0,0.0,30.23,NNE,26,10.0,16.0,0,0.00,,---,0.00,VWS V14.00,2013-05-13 14:15:00,
2013-05-13 09:25:00,158.0,0.0,30.23,NNE,18,6.0,12.0,0,0.00,,---,0.00,VWS V14.00,2013-05-13 14:25:00,
2013-05-13 09:35:00,158.0,0.0,30.23,NNE,30,8.0,10.0,0,0.00,,---,0.00,VWS V14.00,2013-05-13 14:35:00,
2013-05-13 09:45:00,158.0,0.0,30.23,NNE,31,7.0,13.0,0,0.00,,---,0.00,VWS V14.00,2013-05-13 14:45:00,
2013-05-13 10:05:00,158.0,0.0,30.23,NNE,22,10.0,14.0,0,0.00,,---,0.00,VWS V14.00,2013-05-13 15:05:00,
2013-05-13 10:15:00,158.0,0.0,30.23,NNE,18,14.0,16.0,0,0.00,,---,0.00,VWS V14.00,2013-05-13 15:15:00,
2013-05-13 10:25:00,158.0,0.0,30.24,North,360,8.0,18.0,0,0.00,,---,0.00,VWS V14.00,2013-05-13 15:25:00,
2013-05-13 10:35:00,158.0,0.0,30.24,WNW,300,7.0,13.0,0,0.00,,---,0.00,VWS V14.00,2013-05-13 15:35:00,
2013-05-13 10:45:00,158.0,0.0,30.24,NW,304,11.0,11.0,0,0.00,,---,0.00,VWS V14.00,2013-05-13 15:45:00,
2013-05-13 10:55:00,158.0,0.0,30.23,NNW,335,9.0,12.0,0,0.00,,---,0.00,VWS V14.00,2013-05-13 15:55:00,
2013-05-13 11:05:00,158.0,0.0,30.24,NW,309,10.0,13.0,0,0.00,,---,0.00,VWS V14.00,2013-05-13 16:05:00,
2013-05-13 11:15:00,158.0,0.0,30.24,WNW,288,10.0,11.0,0,0.00,,---,0.00,VWS V14.00,2013-05-13 16:15:00,
2013-05-13 11:25:00,158.0,0.0,30.24,NW,310,10.0,12.0,0,0.00,,---,0.00,VWS V14.00,2013-05-13 16:25:00,
2013-05-13 11:35:00,158.0,0.0,30.24,NW,306,9.0,12.0,0,0.00,,---,0.00,VWS V14.00,2013-05-13 16:35:00,
2013-05-13 11:45:00,158.0,0.0,30.23,NW,304,9.0,12.0,0,0.00,,---,0.00,VWS V14.00,2013-05-13 16:45:00,
2013-05-13 11:55:00,158.0,0.0,30.23,WNW,298,10.0,13.0,0,0.00,,---,0.00,VWS V14.00,2013-05-13 16:55:00,
2013-05-13 12:05:00,158.0,0.0,30.23,WNW,298,13.0,14.0,0,0.00,,---,0.00,VWS V14.00,2013-05-13 17:05:00,
2013-05-13 12:15:00,158.0,0.0,30.23,WNW,297,13.0,14.0,0,0.00,,---,0.00,VWS V14.00,2013-05-13 17:15:00,
2013-05-13 12:25:00,158.0,0.0,30.22,WNW,297,10.0,13.0,0,0.00,,---,0.00,VWS V14.00,2013-05-13 17:25:00,
2013-05-13 12:35:00,158.0,0.0,30.22,WNW,300,11.0,13.0,0,0.00,,---,0.00,VWS V14.00,2013-05-13 17:35:00,
2013-05-13 12:45:00,158.0,0.0,30.22,WNW,295,11.0,13.0,0,0.00,,---,0.00,VWS V14.00,2013-05-13 17:45:00,
2013-05-13 12:55:00,158.0,0.0,30.21,WNW,284,11.0,12.0,0,0.00,,---,0.00,VWS V14.00,2013-05-13 17:55:00,
2013-05-13 13:05:00,158.0,0.0,30.21,WNW,298,13.0,15.0,0,0.00,,---,0.00,VWS V14.00,2013-05-13 18:05:00,
2013-05-13 13:15:00,158.0,0.0,30.20,WNW,293,13.0,16.0,0,0.00,,---,0.00,VWS V14.00,2013-05-13 18:15:00,
2013-05-13 13:25:00,158.0,0.0,30.20,WNW,301,12.0,15.0,0,0.00,,---,0.00,VWS V14.00,2013-05-13 18:25:00,
2013-05-13 13:35:00,158.0,0.0,30.20,WNW,302,13.0,15.0,0,0.00,,---,0.00,VWS V14.00,2013-05-13 18:35:00,
2013-05-13 13:45:00,158.0,0.0,30.20,WNW,294,14.0,16.0,0,0.00,,---,0.00,VWS V14.00,2013-05-13 18:45:00,
2013-05-13 13:55:00,158.0,0.0,30.19,WNW,294,12.0,16.0,0,0.00,,---,0.00,VWS V14.00,2013-05-13 18:55:00,
2013-05-13 14:05:00,158.0,0.0,30.19,WNW,296,12.0,14.0,0,0.00,,---,0.00,VWS V14.00,2013-05-13 19:05:00,
2013-05-13 14:15:00,158.0,0.0,30.19,WNW,299,13.0,16.0,0,0.00,,---,0.00,VWS V14.00,2013-05-13 19:15:00,
2013-05-13 14:25:00,158.0,0.0,30.18,WNW,298,14.0,16.0,0,0.00,,---,0.00,VWS V14.00,2013-05-13 19:25:00,
2013-05-13 14:35:00,158.0,0.0,30.18,WNW,300,15.0,16.0,0,0.00,,---,0.00,VWS V14.00,2013-05-13 19:35:00,
2013-05-13 14:45:00,158.0,0.0,30.18,WNW,297,15.0,17.0,0,0.00,,---,0.00,VWS V14.00,2013-05-13 19:45:00,
2013-05-13 14:55:00,158.0,0.0,30.18,NW,304,15.0,18.0,0,0.00,,---,0.00,VWS V14.00,2013-05-13 19:55:00,
2013-05-13 15:05:00,158.0,0.0,30.18,WNW,291,13.0,16.0,0,0.00,,---,0.00,VWS V14.00,2013-05-13 20:05:00,
2013-05-13 15:15:00,158.0,0.0,30.17,WNW,294,12.0,15.0,0,0.00,,---,0.00,VWS V14.00,2013-05-13 20:15:00,
2013-05-13 15:25:00,158.0,0.0,30.17,NW,305,15.0,17.0,0,0.00,,---,0.00,VWS V14.00,2013-05-13 20:25:00,
2013-05-13 15:35:00,158.0,0.0,30.17,NW,308,16.0,19.0,0,0.00,,---,0.00,VWS V14.00,2013-05-13 20:35:00,
2013-05-13 15:45:00,158.0,0.0,30.17,NW,308,16.0,18.0,0,0.00,,---,0.00,VWS V14.00,2013-05-13 20:45:00,
2013-05-13 15:55:00,158.0,0.0,30.16,NW,309,14.0,18.0,0,0.00,,---,0.00,VWS V14.00,2013-05-13 20:55:00,
2013-05-13 16:05:00,158.0,0.0,30.16,NW,313,15.0,16.0,0,0.00,,---,0.00,VWS V14.00,2013-05-13 21:05:00,
2013-05-13 16:15:00,158.0,0.0,30.16,NW,306,11.0,16.0,0,0.00,,---,0.00,VWS V14.00,2013-05-13 21:15:00,
2013-05-13 16:25:00,158.0,0.0,30.16,NW,320,15.0,16.0,0,0.00,,---,0.00,VWS V14.00,2013-05-13 21:25:00,
2013-05-13 16:35:00,158.0,0.0,30.16,NW,325,13.0,16.0,0,0.00,,---,0.00,VWS V14.00,2013-05-13 21:35:00,
2013-05-13 16:45:00,158.0,0.0,30.16,NW,317,14.0,15.0,0,0.00,,---,0.00,VWS V14.00,2013-05-13 21:45:00,
2013-05-13 16:55:00,158.0,0.0,30.15,NW,314,12.0,14.0,0,0.00,,---,0.00,VWS V14.00,2013-05-13 21:55:00,
2013-05-13 17:05:00,158.0,0.0,30.15,NNW,337,13.0,14.0,0,0.00,,---,0.00,VWS V14.00,2013-05-13 22:05:00,
2013-05-13 17:15:00,158.0,0.0,30.15,NW,323,10.0,14.0,0,0.00,,---,0.00,VWS V14.00,2013-05-13 22:15:00,
2013-05-13 17:25:00,158.0,0.0,30.15,NNW,331,9.0,12.0,0,0.00,,---,0.00,VWS V14.00,2013-05-13 22:25:00,
2013-05-13 17:35:00,158.0,0.0,30.15,NNW,336,10.0,12.0,0,0.00,,---,0.00,VWS V14.00,2013-05-13 22:35:00,
2013-05-13 17:55:00,158.0,0.0,30.14,NNW,345,9.0,11.0,0,0.00,,---,0.00,VWS V14.00,2013-05-13 22:55:00,
2013-05-13 18:05:00,158.0,0.0,30.14,NNW,339,9.0,11.0,0,0.00,,---,0.00,VWS V14.00,2013-05-13 23:05:00,
2013-05-13 18:15:00,158.0,0.0,30.14,NNW,338,9.0,11.0,0,0.00,,---,0.00,VWS V14.00,2013-05-13 23:15:00,
2013-05-13 18:25:00,158.0,0.0,30.14,NNW,343,7.0,10.0,0,0.00,,---,0.00,VWS V14.00,2013-05-13 23:25:00,
2013-05-13 18:35:00,158.0,0.0,30.15,NNW,343,7.0,10.0,0,0.00,,---,0.00,VWS V14.00,2013-05-13 23:35:00,
2013-05-13 18:45:00,158.0,0.0,30.15,North,350,6.0,9.0,0,0.00,,---,0.00,VWS V14.00,2013-05-13 23:45:00,
2013-05-13 18:55:00,158.0,0.0,30.15,North,355,6.0,7.0,0,0.00,,---,0.00,VWS V14.00,2013-05-13 23:55:00,
2013-05-13 19:05:00,158.0,0.0,30.15,North,355,5.0,6.0,0,0.00,,---,0.00,VWS V14.00,2013-05-14 00:05:00,
2013-05-13 19:15:00,158.0,0.0,30.15,North,355,5.0,6.0,0,0.00,,---,0.00,VWS V14.00,2013-05-14 00:15:00,
2013-05-13 19:25:00,158.0,0.0,30.15,North,355,3.0,5.0,0,0.00,,---,0.00,VWS V14.00,2013-05-14 00:25:00,
2013-05-13 19:35:00,158.0,0.0,30.15,North,355,1.0,4.0,0,0.00,,---,0.00,VWS V14.00,2013-05-14 00:35:00,
2013-05-13 19:45:00,158.0,0.0,30.15,North,355,0.0,2.0,0,0.00,,---,0.00,VWS V14.00,2013-05-14 00:45:00,
2013-05-13 19:55:00,158.0,0.0,30.16,North,355,0.0,0.0,0,0.00,,---,0.00,VWS V14.00,2013-05-14 00:55:00,
2013-05-13 20:05:00,158.0,0.0,30.16,North,355,0.0,0.0,0,0.00,,---,0.00,VWS V14.00,2013-05-14 01:05:00,
2013-05-13 20:15:00,158.0,0.0,30.16,North,355,0.0,0.0,0,0.00,,---,0.00,VWS V14.00,2013-05-14 01:15:00,
2013-05-13 20:25:00,158.0,0.0,30.16,North,355,0.0,0.0,0,0.00,,---,0.00,VWS V14.00,2013-05-14 01:25:00,
2013-05-13 20:35:00,158.0,0.0,30.16,North,355,0.0,0.0,0,0.00,,---,0.00,VWS V14.00,2013-05-14 01:35:00,
2013-05-13 20:45:00,158.0,0.0,30.16,SW,236,9.0,11.0,0,0.00,,---,0.00,VWS V14.00,2013-05-14 01:45:00,
2013-05-13 20:55:00,158.0,0.0,30.17,SW,235,11.0,13.0,0,0.00,,---,0.00,VWS V14.00,2013-05-14 01:55:00,
2013-05-13 21:05:00,158.0,0.0,30.17,WSW,240,10.0,12.0,0,0.00,,---,0.00,VWS V14.00,2013-05-14 02:05:00,
2013-05-13 21:15:00,158.0,0.0,30.17,SW,234,11.0,13.0,0,0.00,,---,0.00,VWS V14.00,2013-05-14 02:15:00,
2013-05-13 21:25:00,158.0,0.0,30.17,SW,235,12.0,13.0,0,0.00,,---,0.00,VWS V14.00,2013-05-14 02:25:00,
2013-05-13 21:35:00,158.0,0.0,30.17,SW,231,11.0,13.0,0,0.00,,---,0.00,VWS V14.00,2013-05-14 02:35:00,
2013-05-13 21:45:00,158.0,0.0,30.17,SW,236,12.0,14.0,0,0.00,,---,0.00,VWS V14.00,2013-05-14 02:45:00,
2013-05-13 21:55:00,158.0,0.0,30.17,WSW,248,10.0,13.0,0,0.00,,---,0.00,VWS V14.00,2013-05-14 02:55:00,
2013-05-13 22:05:00,158.0,0.0,30.17,WSW,251,10.0,12.0,0,0.00,,---,0.00,VWS V14.00,2013-05-14 03:05:00,
2013-05-13 22:15:00,158.0,0.0,30.18,WSW,251,10.0,14.0,0,0.00,,---,0.00,VWS V14.00,2013-05-14 03:15:00,
2013-05-13 22:25:00,158.0,0.0,30.18,WSW,254,11.0,13.0,0,0.00,,---,0.00,VWS V14.00,2013-05-14 03:25:00,
2013-05-13 22:35:00,158.0,0.0,30.18,WSW,255,10.0,13.0,0,0.00,,---,0.00,VWS V14.00,2013-05-14 03:35:00,
2013-05-13 22:45:00,158.0,0.0,30.18,West,261,10.0,13.0,0,0.00,,---,0.00,VWS V14.00,2013-05-14 03:45:00,
2013-05-13 22:55:00,158.0,0.0,30.18,WSW,254,11.0,13.0,0,0.00,,---,0.00,VWS V14.00,2013-05-14 03:55:00,
2013-05-13 23:05:00,158.0,0.0,30.17,WSW,254,11.0,12.0,0,0.00,,---,0.00,VWS V14.00,2013-05-14 04:05:00,
2013-05-13 23:15:00,158.0,0.0,30.17,WSW,255,9.0,13.0,0,0.00,,---,0.00,VWS V14.00,2013-05-14 04:15:00,
2013-05-13 23:25:00,158.0,0.0,30.17,WSW,249,9.0,13.0,0,0.00,,---,0.00,VWS V14.00,2013-05-14 04:25:00,
2013-05-13 23:35:00,158.0,0.0,30.17,WSW,246,10.0,12.0,0,0.00,,---,0.00,VWS V14.00,2013-05-14 04:35:00,
2013-05-13 23:45:00,158.0,0.0,30.17,WSW,244,10.0,12.0,0,0.00,,---,0.00,VWS V14.00,2013-05-14 04:45:00,
2013-05-13 23:55:00,158.0,0.0,30.17,WSW,243,10.0,11.0,0,0.00,,---,0.00,VWS V14.00,2013-05-14 04:55:00,